SAS2875 ENBR-EKCH

Flight info

Callsign SAS2875
Flight time N/A
Altitude 37000
Route TUXIL DCT ZOL DCT TESPI
Aircraft A319/M-SDE3FGIJ1RWXY/LB1

Departure

Time 2026-05-04 20:01
Airport Bergen Airport, Flesland (ENBR)

Arrival

Time N/A
Airport Copenhagen Kastrup Airport (EKCH)
Time Latitude Longitude Altitude Speed Heading
2026-05-04 19:35 60.28861 5.22576 173 ft 0 kts 59°
2026-05-04 19:50 60.28861 5.22575 200 ft 0 kts 59°
2026-05-04 19:53 60.28852 5.22541 173 ft 4 kts 72°
2026-05-04 19:53 60.28847 5.22488 170 ft 4 kts 84°
2026-05-04 19:53 60.28845 5.22462 169 ft 0 kts 83°
2026-05-04 19:57 60.28843 5.22472 169 ft 2 kts 110°
2026-05-04 19:57 60.28822 5.22437 167 ft 11 kts 240°
2026-05-04 19:57 60.28734 5.22342 163 ft 19 kts 168°
2026-05-04 19:58 60.28591 5.22388 165 ft 23 kts 172°
2026-05-04 19:58 60.28465 5.22432 164 ft 10 kts 170°
2026-05-04 19:58 60.28377 5.22461 161 ft 17 kts 172°
2026-05-04 19:58 60.28273 5.22496 156 ft 11 kts 171°
2026-05-04 19:59 60.28171 5.22531 151 ft 18 kts 170°
2026-05-04 19:59 60.28106 5.22552 152 ft 5 kts 173°
2026-05-04 19:59 60.28073 5.22533 152 ft 5 kts 211°
2026-05-04 19:59 60.28051 5.22447 151 ft 10 kts 262°
2026-05-04 20:00 60.28044 5.22362 150 ft 5 kts 261°
2026-05-04 20:00 60.28048 5.22277 150 ft 7 kts 297°
2026-05-04 20:00 60.28088 5.22237 151 ft 1 kts 349°
2026-05-04 20:00 60.28211 5.22194 152 ft 50 kts 350°
2026-05-04 20:01 60.28776 5.22006 163 ft 111 kts 350°
2026-05-04 20:01 60.29660 5.21688 149 ft 160 kts 349°
2026-05-04 20:01 60.30803 5.21331 586 ft 171 kts 352°
2026-05-04 20:01 60.31933 5.21097 1531 ft 156 kts 353°
2026-05-04 20:02 60.32977 5.20859 2386 ft 150 kts 351°
2026-05-04 20:02 60.34060 5.20473 2876 ft 167 kts 347°
2026-05-04 20:02 60.35250 5.20007 3243 ft 189 kts 348°
2026-05-04 20:02 60.36622 5.19482 3600 ft 213 kts 347°
2026-05-04 20:03 60.38175 5.18901 4053 ft 239 kts 347°
2026-05-04 20:03 60.39876 5.18280 4740 ft 258 kts 346°
2026-05-04 20:03 60.41675 5.17637 5686 ft 266 kts 346°
2026-05-04 20:03 60.43518 5.16997 6716 ft 272 kts 346°
2026-05-04 20:04 60.45376 5.16362 7719 ft 275 kts 345°
2026-05-04 20:04 60.47157 5.15014 8720 ft 270 kts 319°
2026-05-04 20:04 60.48348 5.12203 9729 ft 262 kts 291°
2026-05-04 20:04 60.48726 5.08657 10678 ft 258 kts 266°
2026-05-04 20:05 60.48473 5.05063 11618 ft 259 kts 259°
2026-05-04 20:05 60.48026 5.01515 12521 ft 263 kts 245°
2026-05-04 20:05 60.46823 4.98679 13402 ft 274 kts 218°
2026-05-04 20:05 60.44954 4.97289 13802 ft 309 kts 191°
2026-05-04 20:06 60.42717 4.97309 14243 ft 329 kts 182°
2026-05-04 20:06 60.40443 4.97774 14921 ft 337 kts 179°
2026-05-04 20:06 60.38074 4.98436 15639 ft 342 kts 178°
2026-05-04 20:06 60.35747 4.99105 16319 ft 346 kts 179°
2026-05-04 20:07 60.33342 4.99749 17040 ft 350 kts 180°
2026-05-04 20:07 60.30912 5.00336 17757 ft 353 kts 180°
2026-05-04 20:07 60.28454 5.00880 18446 ft 357 kts 181°
2026-05-04 20:07 60.25973 5.01687 19078 ft 364 kts 176°
2026-05-04 20:08 60.24250 5.02358 19516 ft 366 kts 176°
2026-05-04 20:08 60.21978 5.03241 20104 ft 369 kts 176°
2026-05-04 20:08 60.19486 5.04213 20729 ft 372 kts 176°
2026-05-04 20:08 60.16900 5.05269 21392 ft 378 kts 173°
2026-05-04 20:09 60.14407 5.06999 21997 ft 389 kts 163°
2026-05-04 20:09 60.11930 5.09154 22614 ft 392 kts 163°
2026-05-04 20:09 60.10251 5.10604 23030 ft 394 kts 164°
2026-05-04 20:09 60.06895 5.13485 23749 ft 398 kts 163°
2026-05-04 20:10 60.04315 5.15690 24248 ft 401 kts 163°
2026-05-04 20:10 60.01752 5.17876 24744 ft 404 kts 163°
2026-05-04 20:10 59.99162 5.20086 25242 ft 406 kts 163°
2026-05-04 20:10 59.97403 5.21588 25576 ft 408 kts 163°
2026-05-04 20:11 59.94810 5.23800 26052 ft 410 kts 163°
2026-05-04 20:11 59.92154 5.26061 26561 ft 413 kts 163°
2026-05-04 20:11 59.89522 5.28296 27024 ft 415 kts 162°
2026-05-04 20:11 59.86839 5.30572 27533 ft 417 kts 162°
2026-05-04 20:12 59.84157 5.32837 28038 ft 420 kts 162°
2026-05-04 20:12 59.81521 5.34944 28506 ft 419 kts 167°
2026-05-04 20:12 59.77744 5.36669 29146 ft 415 kts 178°
2026-05-04 20:12 59.75839 5.37013 29423 ft 415 kts 180°
2026-05-04 20:13 59.72922 5.37481 29892 ft 418 kts 180°
2026-05-04 20:13 59.70045 5.37945 30278 ft 420 kts 180°
2026-05-04 20:13 59.67121 5.38416 30655 ft 422 kts 180°
2026-05-04 20:13 59.64139 5.38914 31033 ft 425 kts 179°
2026-05-04 20:14 59.61244 5.39525 31390 ft 428 kts 178°
2026-05-04 20:14 59.58270 5.40279 31740 ft 430 kts 177°
2026-05-04 20:14 59.56808 5.40678 31971 ft 430 kts 177°
2026-05-04 20:15 59.54472 5.41331 32379 ft 428 kts 177°
2026-05-04 20:15 59.51533 5.42149 32889 ft 427 kts 177°
2026-05-04 20:16 59.48589 5.42944 33362 ft 425 kts 178°
2026-05-04 20:16 59.45650 5.43710 33917 ft 422 kts 178°